Weather reports worldwide

Advertisment
Chania/Souda, Greece (16746): temperature & dewpoint: 12.10.2017 08:00:00 - 18.10.2017 08:00:00 (EEST)Chania/Souda, Greece (16746): wind speed: 12.10.2017 08:00:00 - 18.10.2017 08:00:00 (EEST)Chania/Souda, Greece (16746): wind direction: 12.10.2017 08:00:00 - 18.10.2017 08:00:00 (EEST)Chania/Souda, Greece (16746): reduced air pressure: 12.10.2017 08:00:00 - 18.10.2017 08:00:00 (EEST)Chania/Souda, Greece (16746): visibility: 12.10.2017 08:00:00 - 18.10.2017 08:00:00 (EEST)
Date & Time tt [°C] td [°C] ff [km/h] ff [kn] dd ppp [hPa] vv [km]
18.10.2017 08:00:00 14,0 13,0 8 4 S - 10
18.10.2017 07:00:00 14,0 13,0 0 0 N - 10
18.10.2017 06:00:00 14,0 12,5 0 0 N 1019,9 10
18.10.2017 05:00:00 15,0 13,0 0 0 N - 10
18.10.2017 04:00:00 15,0 13,0 0 0 N - 10
18.10.2017 03:00:00 14,8 13,0 0 0 N 1021,0 10
18.10.2017 02:00:00 15,0 14,0 0 0 N - 10
18.10.2017 01:00:00 15,0 13,0 0 0 N - 10
18.10.2017 00:00:00 15,8 14,1 0 0 N 1021,1 10
17.10.2017 23:00:00 17,0 15,0 8 4 S - 10
17.10.2017 22:00:00 17,0 15,0 15 8 SSE - 10
17.10.2017 21:00:00 18,0 15,3 11 6 ENE 1021,4 10
17.10.2017 20:00:00 19,0 16,0 9 5 ENE - 10
17.10.2017 19:00:00 19,0 16,0 8 4 ENE - 10
17.10.2017 18:00:00 21,0 16,0 8 4 - 1021,1 10
17.10.2017 17:00:00 22,0 16,0 13 7 N - 10
17.10.2017 16:00:00 22,0 15,0 11 6 N - 10
17.10.2017 15:00:00 22,0 15,3 18 10 NNE 1022,0 10
17.10.2017 14:00:00 22,0 15,0 18 10 N - 10
17.10.2017 13:00:00 22,0 16,0 22 12 N - 10
17.10.2017 12:00:00 21,8 16,9 18 10 N 1023,4 10
17.10.2017 11:00:00 20,0 17,0 11 6 NW - 10
17.10.2017 10:00:00 19,0 16,0 9 5 WNW - 10
17.10.2017 09:00:00 17,2 14,8 0 0 N 1022,9 10
17.10.2017 08:00:00 16,0 15,0 8 4 W - 10
17.10.2017 07:00:00 16,0 15,0 8 4 W - 10
17.10.2017 06:00:00 16,6 15,2 0 0 N 1023,0 10
17.10.2017 05:00:00 17,0 16,0 9 5 W - 10
17.10.2017 04:00:00 17,0 15,0 0 0 N - 10
17.10.2017 03:00:00 17,0 15,6 8 4 W 1023,6 10
17.10.2017 02:00:00 17,0 15,0 8 4 W - 10
17.10.2017 01:00:00 18,0 15,0 8 4 WSW - 10
17.10.2017 00:00:00 17,0 14,9 8 4 W 1024,0 10
16.10.2017 23:00:00 18,0 15,0 8 4 W - 10
16.10.2017 22:00:00 18,0 16,0 9 5 WNW - 10
16.10.2017 21:00:00 18,8 16,8 11 6 WNW 1023,6 10
16.10.2017 20:00:00 20,0 16,0 9 5 W - 10
16.10.2017 19:00:00 21,0 17,0 11 6 W - 10
16.10.2017 18:00:00 22,8 17,7 11 6 NNW 1023,4 10
16.10.2017 17:00:00 23,0 16,0 9 5 N - 10
16.10.2017 16:00:00 23,0 16,0 11 6 NW - 10
16.10.2017 15:00:00 23,0 16,9 15 8 N 1023,5 10
16.10.2017 14:00:00 23,0 17,0 11 6 N - 10
16.10.2017 13:00:00 23,0 17,0 13 7 NNW - 10
16.10.2017 12:00:00 22,4 17,2 5 3 - 1024,2 10
16.10.2017 11:00:00 21,0 17,0 0 0 N - 10
16.10.2017 10:00:00 20,0 16,0 0 0 N - 10
16.10.2017 09:00:00 16,8 14,4 0 0 N 1023,6 10
16.10.2017 08:00:00 15,0 13,0 0 0 N - 10
16.10.2017 07:00:00 15,0 13,0 8 4 NW - 10
16.10.2017 06:00:00 15,2 13,1 8 4 W 1023,0 10
16.10.2017 05:00:00 14,0 13,0 8 4 W - 10
16.10.2017 04:00:00 15,0 13,0 8 4 W - 10
16.10.2017 03:00:00 14,8 12,6 8 4 WSW 1023,5 10
16.10.2017 02:00:00 15,0 13,0 0 0 N - 10
16.10.2017 01:00:00 15,0 12,0 8 4 WSW - 10
16.10.2017 00:00:00 15,2 13,1 0 0 N 1024,2 10
15.10.2017 23:00:00 16,0 13,0 0 0 N - 10
15.10.2017 22:00:00 16,0 14,0 0 0 N - 10
15.10.2017 21:00:00 16,6 13,4 0 0 N 1023,9 10
15.10.2017 20:00:00 17,0 15,0 0 0 N - 10
15.10.2017 19:00:00 19,0 16,0 8 4 NNW - 10
15.10.2017 18:00:00 19,8 15,4 9 5 NNW 1022,9 10
15.10.2017 17:00:00 20,0 14,0 11 6 N - 10
15.10.2017 16:00:00 20,0 14,0 13 7 N - 10
15.10.2017 15:00:00 20,6 14,9 15 8 NE 1023,5 10
15.10.2017 14:00:00 20,0 14,0 21 11 NE - 10
15.10.2017 13:00:00 20,0 14,0 18 10 N - 10
15.10.2017 12:00:00 20,4 12,7 22 12 NE 1023,9 10
15.10.2017 11:00:00 20,0 13,0 18 10 NNW - 10
15.10.2017 10:00:00 20,0 13,0 18 10 N - 10
15.10.2017 09:00:00 17,6 13,4 8 4 WNW 1023,8 10
15.10.2017 08:00:00 17,0 13,0 9 5 NNW - 10
15.10.2017 07:00:00 18,0 12,0 15 8 N - 10
15.10.2017 06:00:00 18,0 11,0 22 12 N 1022,7 10
15.10.2017 05:00:00 17,0 12,0 15 8 N - 10
15.10.2017 04:00:00 17,0 13,0 15 8 NNW - 10
15.10.2017 03:00:00 16,8 12,5 8 4 WNW 1022,6 10
15.10.2017 02:00:00 18,0 15,0 8 4 NW - 10
15.10.2017 01:00:00 18,0 15,0 8 4 WNW - 10
15.10.2017 00:00:00 17,8 14,7 8 4 N 1022,5 10
14.10.2017 23:00:00 18,0 15,0 11 6 NE - 10
14.10.2017 22:00:00 19,0 15,0 11 6 ENE - 10
14.10.2017 21:00:00 18,8 15,1 9 5 NNE 1021,8 10
14.10.2017 20:00:00 19,0 17,0 0 0 N - 10
14.10.2017 19:00:00 21,0 17,0 11 6 NNW - 10
14.10.2017 18:00:00 21,6 16,0 22 12 N 1020,0 10
14.10.2017 17:00:00 23,0 17,0 16 9 N - 10
14.10.2017 16:00:00 23,0 17,0 16 9 NNW - 10
14.10.2017 15:00:00 23,2 16,4 22 12 NNW 1020,2 10
14.10.2017 14:00:00 23,0 15,0 18 10 NNE - 10
14.10.2017 13:00:00 23,0 15,0 15 8 N - 10
14.10.2017 12:00:00 21,8 15,1 18 10 N 1020,7 10
14.10.2017 11:00:00 22,0 15,0 15 8 NNW - 10
14.10.2017 10:00:00 19,0 15,0 11 6 NW - 10
14.10.2017 09:00:00 17,4 13,9 8 4 W 1020,2 10
14.10.2017 08:00:00 15,0 14,0 8 4 WNW - 10
14.10.2017 07:00:00 15,0 14,0 8 4 W - 10
14.10.2017 06:00:00 15,2 14,1 8 4 W 1019,9 10
14.10.2017 05:00:00 16,0 14,0 0 0 N - 10
14.10.2017 04:00:00 16,0 15,0 0 0 N - 10
14.10.2017 03:00:00 15,8 14,4 8 4 W 1020,0 10
14.10.2017 02:00:00 16,0 15,0 8 4 W - 10
14.10.2017 01:00:00 16,0 14,0 8 4 W - 10
14.10.2017 00:00:00 16,0 13,9 9 5 W 1020,6 10
13.10.2017 23:00:00 16,0 15,0 8 4 W - 10
13.10.2017 22:00:00 17,0 15,0 8 4 SW - 10
13.10.2017 21:00:00 17,4 14,6 0 0 N 1020,2 10
13.10.2017 20:00:00 19,0 16,0 0 0 N - 10
13.10.2017 19:00:00 20,0 17,0 8 4 NNW - 10
13.10.2017 18:00:00 21,0 15,7 15 8 NW 1019,8 10
13.10.2017 17:00:00 22,0 17,0 15 8 NNW - 10
13.10.2017 16:00:00 23,0 17,0 15 8 NW - 10
13.10.2017 15:00:00 23,6 16,5 15 8 NNW 1019,9 10
13.10.2017 14:00:00 23,0 13,0 21 11 NNW - 10
13.10.2017 13:00:00 22,0 14,0 21 11 WNW - 10
13.10.2017 12:00:00 21,8 15,1 15 8 NW 1021,1 10
13.10.2017 11:00:00 21,0 15,0 9 5 NNW - 10
13.10.2017 10:00:00 20,0 15,0 8 4 NW - 10
13.10.2017 09:00:00 15,8 12,9 0 0 N 1021,1 10
13.10.2017 08:00:00 14,0 13,0 0 0 N - 10
13.10.2017 07:00:00 15,0 12,0 0 0 N - 10
13.10.2017 06:00:00 14,8 12,2 0 0 N 1020,9 10
13.10.2017 05:00:00 15,0 12,0 0 0 N - 10
13.10.2017 04:00:00 15,0 12,0 0 0 N - 10
13.10.2017 03:00:00 14,8 12,2 0 0 N 1021,5 10
13.10.2017 02:00:00 15,0 12,0 0 0 N - 10
13.10.2017 01:00:00 15,0 13,0 0 0 N - 10
13.10.2017 00:00:00 16,2 13,0 0 0 N 1022,0 10
12.10.2017 23:00:00 17,0 12,0 0 0 N - 10
12.10.2017 22:00:00 17,0 14,0 0 0 N - 10
12.10.2017 21:00:00 16,8 13,6 0 0 N 1021,8 10
12.10.2017 20:00:00 18,0 15,0 8 4 N - 10
12.10.2017 19:00:00 20,0 15,0 11 6 N - 10
12.10.2017 18:00:00 20,6 14,1 18 10 N 1021,3 10
12.10.2017 17:00:00 21,0 14,0 22 12 N - 10
12.10.2017 16:00:00 22,0 15,0 22 12 NNE - 10
12.10.2017 15:00:00 22,0 14,2 22 12 NE 1021,3 10
12.10.2017 14:00:00 23,0 13,0 29 16 NNE - 10
12.10.2017 13:00:00 22,0 15,0 22 12 NNE - 10
12.10.2017 12:00:00 21,8 14,3 26 14 NNE 1022,2 10
12.10.2017 11:00:00 21,0 14,0 15 8 NNW - 10
12.10.2017 10:00:00 20,0 14,0 9 5 N - 10
12.10.2017 09:00:00 16,8 15,1 8 4 N 1021,6 10
12.10.2017 08:00:00 15,0 12,0 0 0 N - 10

tt = temperature
td = dewpoint
ff = wind speed
dd = wind direction
ppp = reduced air pressure
vv = visibility

Next stations